View from above orbital plane
|
View from above satellite
|
Ground track
|
The orbit data is extracted from the following two-line orbital elements,
1 28931U 06002A 21109.18497331 .00000145 00000-0 36997-4 0 9998
2 28931 97.8821 86.5376 0000911 111.5889 248.5412 14.62824369812393
Epoch (UTC): | 19 April 2021 04:26:21 |
Eccentricity: | 0.0000911 |
inclination: | 97.8821° |
perigee height: | 683 km |
apogee height: | 685 km |
right ascension of ascending node: | 86.5376° |
argument of perigee: | 111.5889° |
revolutions per day: | 14.62824369 |
mean anomaly at epoch: | 248.5412° |
orbit number at epoch: | 81239 |
The dashed part of the orbit path shows where the satellite is in the earth's shadow,
|
|